Time,TemperatureF,DewpointF,PressureIn,WindDirection,WindDirectionDegrees,WindSpeedMPH,WindSpeedGustMPH,Humidity,HourlyPrecipIn,Conditions,Clouds,dailyrainin,SoftwareType,DateUTC
2013-03-18 00:02:00,41.0,35.0,30.26,West,266,0.0,-999.0,80,-99.99,,,-99.99,,2013-03-18 07:02:00,
2013-03-18 00:12:00,41.0,35.0,30.26,West,266,0.0,-999.0,80,-99.99,,,-99.99,,2013-03-18 07:12:00,
2013-03-18 00:22:00,41.0,35.0,30.25,NW,312,1.0,-999.0,79,-99.99,,,-99.99,,2013-03-18 07:22:00,
2013-03-18 00:32:00,41.0,35.0,30.25,NW,312,1.0,-999.0,79,-99.99,,,-99.99,,2013-03-18 07:32:00,
2013-03-18 00:42:00,41.0,35.0,30.25,NW,312,1.0,-999.0,79,-99.99,,,-99.99,,2013-03-18 07:42:00,
2013-03-18 00:52:00,42.0,36.0,30.25,WNW,295,0.0,-999.0,78,-99.99,,,-99.99,,2013-03-18 07:52:00,
2013-03-18 01:01:00,42.0,36.0,30.25,WNW,292,0.0,-999.0,79,-99.99,,,-99.99,,2013-03-18 08:01:00,
2013-03-18 01:12:00,42.0,36.0,30.25,WNW,292,0.0,-999.0,79,-99.99,,,-99.99,,2013-03-18 08:12:00,
2013-03-18 01:21:00,41.0,35.0,30.24,West,270,0.0,-999.0,79,-99.99,,,-99.99,,2013-03-18 08:21:00,
2013-03-18 01:32:00,41.0,35.0,30.24,West,270,0.0,-999.0,79,-99.99,,,-99.99,,2013-03-18 08:32:00,
2013-03-18 01:42:00,41.0,35.0,30.24,West,270,0.0,-999.0,79,-99.99,,,-99.99,,2013-03-18 08:42:00,
2013-03-18 01:52:00,40.0,34.0,30.24,West,270,0.0,-999.0,80,-99.99,,,-99.99,,2013-03-18 08:52:00,
2013-03-18 02:01:00,39.0,34.0,30.24,West,270,0.0,-999.0,81,-99.99,,,-99.99,,2013-03-18 09:01:00,
2013-03-18 02:11:00,39.0,34.0,30.24,West,270,0.0,-999.0,81,-99.99,,,-99.99,,2013-03-18 09:11:00,
2013-03-18 02:22:00,38.0,33.0,30.24,West,270,0.0,-999.0,81,-99.99,,,-99.99,,2013-03-18 09:22:00,
2013-03-18 02:32:00,37.0,32.0,30.24,West,270,0.0,-999.0,82,-99.99,,,-99.99,,2013-03-18 09:32:00,
2013-03-18 02:42:00,37.0,32.0,30.24,West,270,0.0,-999.0,82,-99.99,,,-99.99,,2013-03-18 09:42:00,
2013-03-18 02:53:00,36.0,31.0,30.24,West,270,0.0,-999.0,83,-99.99,,,-99.99,,2013-03-18 09:53:00,
2013-03-18 03:02:00,36.0,32.0,30.24,West,270,0.0,-999.0,84,-99.99,,,-99.99,,2013-03-18 10:02:00,
2013-03-18 03:12:00,36.0,32.0,30.24,West,270,0.0,-999.0,84,-99.99,,,-99.99,,2013-03-18 10:12:00,
2013-03-18 03:23:00,35.0,31.0,30.25,West,270,0.0,-999.0,86,-99.99,,,-99.99,,2013-03-18 10:23:00,
2013-03-18 03:32:00,35.0,31.0,30.25,West,270,0.0,-999.0,86,-99.99,,,-99.99,,2013-03-18 10:32:00,
2013-03-18 03:41:00,35.0,31.0,30.25,West,270,0.0,-999.0,86,-99.99,,,-99.99,,2013-03-18 10:41:00,
2013-03-18 03:53:00,34.0,31.0,30.25,West,270,0.0,-999.0,88,-99.99,,,-99.99,,2013-03-18 10:53:00,
2013-03-18 04:02:00,33.0,30.0,30.25,West,270,0.0,-999.0,88,-99.99,,,-99.99,,2013-03-18 11:02:00,
2013-03-18 04:12:00,33.0,30.0,30.25,West,270,0.0,-999.0,88,-99.99,,,-99.99,,2013-03-18 11:12:00,
2013-03-18 04:21:00,33.0,30.0,30.25,West,270,0.0,-999.0,90,-99.99,,,-99.99,,2013-03-18 11:21:00,
2013-03-18 04:31:00,33.0,30.0,30.25,West,270,0.0,-999.0,90,-99.99,,,-99.99,,2013-03-18 11:31:00,
2013-03-18 04:42:00,33.0,30.0,30.25,West,270,0.0,-999.0,90,-99.99,,,-99.99,,2013-03-18 11:42:00,
2013-03-18 04:52:00,33.0,31.0,30.25,West,270,0.0,-999.0,91,-99.99,,,-99.99,,2013-03-18 11:52:00,
2013-03-18 05:01:00,32.0,30.0,30.24,West,270,0.0,-999.0,91,-99.99,,,-99.99,,2013-03-18 12:01:00,
2013-03-18 05:12:00,32.0,30.0,30.24,West,270,0.0,-999.0,91,-99.99,,,-99.99,,2013-03-18 12:12:00,
2013-03-18 05:22:00,32.0,30.0,30.24,West,270,0.0,-999.0,91,-99.99,,,-99.99,,2013-03-18 12:22:00,
2013-03-18 05:32:00,32.0,30.0,30.24,West,270,0.0,-999.0,91,-99.99,,,-99.99,,2013-03-18 12:32:00,
2013-03-18 05:42:00,32.0,30.0,30.24,West,270,0.0,-999.0,91,-99.99,,,-99.99,,2013-03-18 12:42:00,
2013-03-18 05:52:00,32.0,30.0,30.24,West,270,0.0,-999.0,92,-99.99,,,-99.99,,2013-03-18 12:52:00,
2013-03-18 06:01:00,32.0,30.0,30.24,West,270,0.0,-999.0,92,-99.99,,,-99.99,,2013-03-18 13:01:00,
2013-03-18 06:11:00,32.0,30.0,30.24,West,270,0.0,-999.0,92,-99.99,,,-99.99,,2013-03-18 13:11:00,
2013-03-18 06:21:00,31.0,29.0,30.25,West,270,0.0,-999.0,92,-99.99,,,-99.99,,2013-03-18 13:21:00,
2013-03-18 06:31:00,31.0,29.0,30.25,West,270,0.0,-999.0,92,-99.99,,,-99.99,,2013-03-18 13:31:00,
2013-03-18 06:42:00,31.0,29.0,30.25,West,270,0.0,-999.0,92,-99.99,,,-99.99,,2013-03-18 13:42:00,
2013-03-18 06:52:00,31.0,29.0,30.25,West,270,0.0,-999.0,92,-99.99,,,-99.99,,2013-03-18 13:52:00,
2013-03-18 07:02:00,30.0,28.0,30.25,West,270,0.0,-999.0,92,-99.99,,,-99.99,,2013-03-18 14:02:00,
2013-03-18 07:11:00,30.0,28.0,30.25,West,270,0.0,-999.0,92,-99.99,,,-99.99,,2013-03-18 14:11:00,
2013-03-18 07:22:00,30.0,28.0,30.25,West,270,0.0,-999.0,92,-99.99,,,-99.99,,2013-03-18 14:22:00,
2013-03-18 07:32:00,30.0,28.0,30.25,West,270,0.0,-999.0,92,-99.99,,,-99.99,,2013-03-18 14:32:00,
2013-03-18 07:42:00,30.0,28.0,30.25,West,270,0.0,-999.0,92,-99.99,,,-99.99,,2013-03-18 14:42:00,
2013-03-18 07:52:00,30.0,28.0,30.25,West,270,0.0,-999.0,93,-99.99,,,-99.99,,2013-03-18 14:52:00,
2013-03-18 08:01:00,30.0,28.0,30.26,West,270,0.0,-999.0,94,-99.99,,,-99.99,,2013-03-18 15:01:00,
2013-03-18 08:12:00,30.0,28.0,30.26,West,270,0.0,-999.0,94,-99.99,,,-99.99,,2013-03-18 15:12:00,
2013-03-18 08:22:00,31.0,29.0,30.26,West,270,0.0,-999.0,94,-99.99,,,-99.99,,2013-03-18 15:22:00,
2013-03-18 08:33:00,31.0,29.0,30.26,West,270,0.0,-999.0,94,-99.99,,,-99.99,,2013-03-18 15:33:00,
2013-03-18 08:42:00,31.0,29.0,30.26,West,270,0.0,-999.0,94,-99.99,,,-99.99,,2013-03-18 15:42:00,
2013-03-18 08:52:00,31.0,29.0,30.26,West,270,0.0,-999.0,94,-99.99,,,-99.99,,2013-03-18 15:52:00,
2013-03-18 09:02:00,33.0,32.0,30.26,West,270,0.0,-999.0,95,-99.99,,,-99.99,,2013-03-18 16:02:00,
2013-03-18 09:12:00,33.0,32.0,30.26,West,270,0.0,-999.0,95,-99.99,,,-99.99,,2013-03-18 16:12:00,
2013-03-18 09:22:00,34.0,33.0,30.26,West,270,0.0,-999.0,96,-99.99,,,-99.99,,2013-03-18 16:22:00,
2013-03-18 09:32:00,36.0,35.0,30.26,West,270,0.0,-999.0,96,-99.99,,,-99.99,,2013-03-18 16:32:00,
2013-03-18 09:42:00,36.0,35.0,30.26,West,270,0.0,-999.0,96,-99.99,,,-99.99,,2013-03-18 16:42:00,
2013-03-18 09:52:00,38.0,37.0,30.27,West,270,0.0,-999.0,95,-99.99,,,-99.99,,2013-03-18 16:52:00,
2013-03-18 10:02:00,38.0,37.0,30.27,West,270,0.0,-999.0,95,-99.99,,,-99.99,,2013-03-18 17:02:00,
2013-03-18 10:11:00,38.0,37.0,30.27,West,270,0.0,-999.0,95,-99.99,,,-99.99,,2013-03-18 17:11:00,
2013-03-18 10:22:00,38.0,37.0,30.27,West,270,0.0,-999.0,95,-99.99,,,-99.99,,2013-03-18 17:22:00,
2013-03-18 10:32:00,44.0,37.0,30.27,SE,133,0.0,-999.0,77,-99.99,,,-99.99,,2013-03-18 17:32:00,
2013-03-18 10:43:00,44.0,37.0,30.27,SE,133,0.0,-999.0,77,-99.99,,,-99.99,,2013-03-18 17:43:00,
2013-03-18 10:52:00,46.0,38.0,30.27,East,84,0.0,-999.0,74,-99.99,,,-99.99,,2013-03-18 17:52:00,
2013-03-18 11:02:00,46.0,38.0,30.27,East,84,0.0,-999.0,74,-99.99,,,-99.99,,2013-03-18 18:02:00,
2013-03-18 11:12:00,46.0,38.0,30.27,East,84,0.0,-999.0,74,-99.99,,,-99.99,,2013-03-18 18:12:00,
2013-03-18 11:21:00,50.0,38.0,30.27,ENE,65,1.0,-999.0,63,-99.99,,,-99.99,,2013-03-18 18:21:00,
2013-03-18 11:32:00,50.0,38.0,30.27,SE,146,1.0,-999.0,62,-99.99,,,-99.99,,2013-03-18 18:32:00,
2013-03-18 11:42:00,50.0,38.0,30.27,SE,146,1.0,-999.0,62,-99.99,,,-99.99,,2013-03-18 18:42:00,
2013-03-18 11:52:00,51.0,37.0,30.26,SE,129,1.0,-999.0,59,-99.99,,,-99.99,,2013-03-18 18:52:00,
2013-03-18 12:02:00,51.0,37.0,30.26,SE,129,1.0,-999.0,59,-99.99,,,-99.99,,2013-03-18 19:02:00,
2013-03-18 12:11:00,51.0,37.0,30.26,SE,129,1.0,-999.0,59,-99.99,,,-99.99,,2013-03-18 19:11:00,
2013-03-18 12:22:00,52.0,37.0,30.26,South,180,2.0,-999.0,57,-99.99,,,-99.99,,2013-03-18 19:22:00,
2013-03-18 12:32:00,53.0,37.0,30.25,SSE,157,2.0,-999.0,54,-99.99,,,-99.99,,2013-03-18 19:32:00,
2013-03-18 12:42:00,53.0,37.0,30.25,SSE,157,2.0,-999.0,54,-99.99,,,-99.99,,2013-03-18 19:42:00,
2013-03-18 12:52:00,54.0,37.0,30.25,South,184,2.0,-999.0,52,-99.99,,,-99.99,,2013-03-18 19:52:00,
2013-03-18 13:02:00,54.0,35.0,30.25,ENE,71,2.0,-999.0,48,-99.99,,,-99.99,,2013-03-18 20:02:00,
2013-03-18 13:11:00,54.0,35.0,30.25,ENE,71,2.0,-999.0,48,-99.99,,,-99.99,,2013-03-18 20:11:00,
2013-03-18 13:22:00,54.0,35.0,30.25,ENE,71,2.0,-999.0,48,-99.99,,,-99.99,,2013-03-18 20:22:00,
2013-03-18 13:32:00,54.0,34.0,30.24,ENE,71,2.0,-999.0,46,-99.99,,,-99.99,,2013-03-18 20:32:00,
2013-03-18 13:42:00,54.0,34.0,30.24,ENE,71,2.0,-999.0,46,-99.99,,,-99.99,,2013-03-18 20:42:00,
2013-03-18 13:52:00,55.0,35.0,30.23,ESE,116,3.0,-999.0,47,-99.99,,,-99.99,,2013-03-18 20:52:00,
2013-03-18 14:02:00,55.0,33.0,30.23,North,360,1.0,-999.0,44,-99.99,,,-99.99,,2013-03-18 21:02:00,
2013-03-18 14:11:00,55.0,33.0,30.23,North,360,1.0,-999.0,44,-99.99,,,-99.99,,2013-03-18 21:11:00,
2013-03-18 14:22:00,56.0,35.0,30.22,ESE,107,1.0,-999.0,45,-99.99,,,-99.99,,2013-03-18 21:22:00,
2013-03-18 14:32:00,56.0,34.0,30.22,East,84,2.0,-999.0,44,-99.99,,,-99.99,,2013-03-18 21:32:00,
2013-03-18 14:42:00,56.0,34.0,30.22,East,84,2.0,-999.0,44,-99.99,,,-99.99,,2013-03-18 21:42:00,
2013-03-18 14:52:00,56.0,34.0,30.22,East,84,2.0,-999.0,44,-99.99,,,-99.99,,2013-03-18 21:52:00,
2013-03-18 15:02:00,56.0,33.0,30.20,ESE,119,1.0,-999.0,42,-99.99,,,-99.99,,2013-03-18 22:02:00,
2013-03-18 15:12:00,56.0,33.0,30.20,ESE,119,1.0,-999.0,42,-99.99,,,-99.99,,2013-03-18 22:12:00,
2013-03-18 15:22:00,57.0,36.0,30.20,ENE,63,2.0,-999.0,45,-99.99,,,-99.99,,2013-03-18 22:22:00,
2013-03-18 15:32:00,57.0,34.0,30.19,ESE,112,2.0,-999.0,42,-99.99,,,-99.99,,2013-03-18 22:32:00,
2013-03-18 15:42:00,57.0,34.0,30.19,ESE,112,2.0,-999.0,42,-99.99,,,-99.99,,2013-03-18 22:42:00,
2013-03-18 15:52:00,57.0,35.0,30.19,NE,38,2.0,-999.0,43,-99.99,,,-99.99,,2013-03-18 22:52:00,
2013-03-18 16:02:00,57.0,35.0,30.18,East,84,2.0,-999.0,43,-99.99,,,-99.99,,2013-03-18 23:02:00,
2013-03-18 16:11:00,57.0,35.0,30.18,East,84,2.0,-999.0,43,-99.99,,,-99.99,,2013-03-18 23:11:00,
2013-03-18 16:22:00,57.0,34.0,30.18,ENE,68,4.0,-999.0,42,-99.99,,,-99.99,,2013-03-18 23:22:00,
2013-03-18 16:32:00,57.0,35.0,30.18,North,9,4.0,-999.0,43,-99.99,,,-99.99,,2013-03-18 23:32:00,
2013-03-18 16:42:00,57.0,35.0,30.18,North,9,4.0,-999.0,43,-99.99,,,-99.99,,2013-03-18 23:42:00,
2013-03-18 16:53:00,56.0,33.0,30.17,NE,44,5.0,-999.0,41,-99.99,,,-99.99,,2013-03-18 23:53:00,
2013-03-18 17:02:00,56.0,33.0,30.17,NE,44,5.0,-999.0,41,-99.99,,,-99.99,,2013-03-19 00:02:00,
2013-03-18 17:11:00,56.0,33.0,30.17,NE,44,5.0,-999.0,41,-99.99,,,-99.99,,2013-03-19 00:11:00,
2013-03-18 17:22:00,56.0,33.0,30.17,East,92,5.0,-999.0,41,-99.99,,,-99.99,,2013-03-19 00:22:00,
2013-03-18 17:32:00,55.0,32.0,30.17,North,355,4.0,-999.0,41,-99.99,,,-99.99,,2013-03-19 00:32:00,
2013-03-18 17:42:00,55.0,32.0,30.17,North,355,4.0,-999.0,41,-99.99,,,-99.99,,2013-03-19 00:42:00,
2013-03-18 17:52:00,55.0,32.0,30.17,NNE,22,5.0,-999.0,42,-99.99,,,-99.99,,2013-03-19 00:52:00,
2013-03-18 18:02:00,54.0,32.0,30.16,NNE,15,5.0,-999.0,43,-99.99,,,-99.99,,2013-03-19 01:02:00,
2013-03-18 18:11:00,54.0,32.0,30.16,NNE,15,5.0,-999.0,43,-99.99,,,-99.99,,2013-03-19 01:11:00,
2013-03-18 18:21:00,54.0,34.0,30.15,North,355,3.0,-999.0,46,-99.99,,,-99.99,,2013-03-19 01:21:00,
2013-03-18 18:32:00,54.0,34.0,30.15,North,355,3.0,-999.0,46,-99.99,,,-99.99,,2013-03-19 01:32:00,
2013-03-18 18:42:00,54.0,34.0,30.15,North,355,3.0,-999.0,46,-99.99,,,-99.99,,2013-03-19 01:42:00,
2013-03-18 18:52:00,53.0,33.0,30.14,NE,51,5.0,-999.0,47,-99.99,,,-99.99,,2013-03-19 01:52:00,
2013-03-18 19:01:00,52.0,32.0,30.14,NNE,14,3.0,-999.0,47,-99.99,,,-99.99,,2013-03-19 02:01:00,
2013-03-18 19:12:00,52.0,32.0,30.14,NNE,14,3.0,-999.0,47,-99.99,,,-99.99,,2013-03-19 02:12:00,
2013-03-18 19:21:00,52.0,33.0,30.14,NNE,15,2.0,-999.0,49,-99.99,,,-99.99,,2013-03-19 02:21:00,
2013-03-18 19:32:00,52.0,33.0,30.14,NNE,15,2.0,-999.0,49,-99.99,,,-99.99,,2013-03-19 02:32:00,
2013-03-18 19:41:00,52.0,33.0,30.14,NNE,15,2.0,-999.0,49,-99.99,,,-99.99,,2013-03-19 02:41:00,
2013-03-18 19:52:00,50.0,33.0,30.14,NNE,24,1.0,-999.0,52,-99.99,,,-99.99,,2013-03-19 02:52:00,
2013-03-18 20:01:00,50.0,34.0,30.14,NNE,30,0.0,-999.0,53,-99.99,,,-99.99,,2013-03-19 03:01:00,
2013-03-18 20:12:00,50.0,34.0,30.14,NNE,30,0.0,-999.0,53,-99.99,,,-99.99,,2013-03-19 03:12:00,
2013-03-18 20:21:00,49.0,33.0,30.14,North,350,0.0,-999.0,54,-99.99,,,-99.99,,2013-03-19 03:21:00,
2013-03-18 20:32:00,48.0,33.0,30.14,NNW,347,0.0,-999.0,56,-99.99,,,-99.99,,2013-03-19 03:32:00,
2013-03-18 20:42:00,48.0,33.0,30.14,NNW,347,0.0,-999.0,56,-99.99,,,-99.99,,2013-03-19 03:42:00,
2013-03-18 20:53:00,47.0,33.0,30.13,NE,54,0.0,-999.0,58,-99.99,,,-99.99,,2013-03-19 03:53:00,
2013-03-18 21:02:00,47.0,33.0,30.13,North,11,0.0,-999.0,59,-99.99,,,-99.99,,2013-03-19 04:02:00,
2013-03-18 21:12:00,47.0,33.0,30.13,North,11,0.0,-999.0,59,-99.99,,,-99.99,,2013-03-19 04:12:00,
2013-03-18 21:22:00,46.0,33.0,30.13,North,11,0.0,-999.0,60,-99.99,,,-99.99,,2013-03-19 04:22:00,
2013-03-18 21:32:00,46.0,33.0,30.13,North,11,0.0,-999.0,60,-99.99,,,-99.99,,2013-03-19 04:32:00,
2013-03-18 21:42:00,46.0,33.0,30.13,North,11,0.0,-999.0,60,-99.99,,,-99.99,,2013-03-19 04:42:00,
2013-03-18 21:52:00,46.0,33.0,30.13,NNE,28,1.0,-999.0,60,-99.99,,,-99.99,,2013-03-19 04:52:00,
2013-03-18 22:02:00,46.0,32.0,30.12,NNE,21,2.0,-999.0,58,-99.99,,,-99.99,,2013-03-19 05:02:00,
2013-03-18 22:11:00,46.0,32.0,30.12,NNE,21,2.0,-999.0,58,-99.99,,,-99.99,,2013-03-19 05:11:00,
2013-03-18 22:22:00,47.0,33.0,30.12,NNW,346,2.0,-999.0,58,-99.99,,,-99.99,,2013-03-19 05:22:00,
2013-03-18 22:32:00,47.0,33.0,30.12,NNW,346,2.0,-999.0,58,-99.99,,,-99.99,,2013-03-19 05:32:00,
2013-03-18 22:42:00,47.0,33.0,30.12,NNW,346,2.0,-999.0,58,-99.99,,,-99.99,,2013-03-19 05:42:00,
2013-03-18 22:52:00,47.0,33.0,30.11,ENE,61,3.0,-999.0,58,-99.99,,,-99.99,,2013-03-19 05:52:00,
2013-03-18 23:01:00,47.0,33.0,30.11,ENE,61,3.0,-999.0,58,-99.99,,,-99.99,,2013-03-19 06:01:00,
2013-03-18 23:12:00,47.0,33.0,30.11,ENE,61,3.0,-999.0,58,-99.99,,,-99.99,,2013-03-19 06:12:00,
2013-03-18 23:21:00,47.0,34.0,30.11,North,355,3.0,-999.0,60,-99.99,,,-99.99,,2013-03-19 06:21:00,
2013-03-18 23:32:00,47.0,34.0,30.10,NE,50,3.0,-999.0,60,-99.99,,,-99.99,,2013-03-19 06:32:00,
2013-03-18 23:42:00,47.0,34.0,30.10,NE,50,3.0,-999.0,60,-99.99,,,-99.99,,2013-03-19 06:42:00,
2013-03-18 23:52:00,46.0,34.0,30.10,North,5,1.0,-999.0,62,-99.99,,,-99.99,,2013-03-19 06:52:00,